H1 CPF 2 NER 2025 8 3 9 215 01 glonass146 H2 2216101 9146 54377 2025 8 3 0 0 0 2025 8 6 23 45 0 900 1 1 0 0 0 1 H9 10 0 60890 0.00000 0 -12859284.355 -7663576.882 -20648997.865 10 0 60890 900.00000 0 -13788404.930 -9932459.332 -19023306.430 10 0 60890 1800.00000 0 -14788713.093 -11924109.316 -17028138.005 10 0 60890 2700.00000 0 -15806366.487 -13602631.129 -14702367.298 10 0 60890 3600.00000 0 -16783349.994 -14944245.068 -12091253.534 10 0 60890 4500.00000 0 -17659992.381 -15938021.315 -9245555.588 10 0 60890 5400.00000 0 -18377567.693 -16586082.573 -6220543.016 10 0 60890 6300.00000 0 -18880871.990 -16903269.214 -3074922.338 10 0 60890 7200.00000 0 -19120667.236 -16916282.960 130300.470 10 0 60890 8100.00000 0 -19055889.893 -16662346.864 3332999.291 10 0 60890 9000.00000 0 -18655531.690 -16187439.206 6471126.299 10 0 60890 9900.00000 0 -17900113.905 -15544176.584 9483906.582 10 0 60890 10800.00000 0 -16782693.418 -14789435.684 12313006.327 10 0 60890 11700.00000 0 -15309358.333 -13981813.863 14903652.644 10 0 60890 12600.00000 0 -13499192.057 -13179035.029 17205684.107 10 0 60890 13500.00000 0 -11383706.664 -12435409.309 19174512.656 10 0 60890 14400.00000 0 -9005768.118 -11799452.517 20771979.205 10 0 60890 15300.00000 0 -6418056.743 -11311764.666 21967087.284 10 0 60890 16200.00000 0 -3681125.321 -11003256.000 22736601.304 10 0 60890 17100.00000 0 -861133.565 -10893794.629 23065498.358 10 0 60890 18000.00000 0 1972648.891 -10991332.570 22947264.974 10 0 60890 18900.00000 0 4750469.331 -11291547.283 22384032.857 10 0 60890 19800.00000 0 7404741.392 -11778014.618 21386550.348 10 0 60890 20700.00000 0 9872608.540 -12422907.108 19973989.136 10 0 60890 21600.00000 0 12098316.157 -13188189.709 18173588.679 10 0 60890 22500.00000 0 14035294.255 -14027264.203 16020143.701 10 0 60890 23400.00000 0 15647864.213 -14886994.411 13555343.225 10 0 60890 24300.00000 0 16912498.218 -15710027.976 10826972.560 10 0 60890 25200.00000 0 17818578.367 -16437317.394 7887992.615 10 0 60890 26100.00000 0 18368623.139 -17010733.947 4795513.727 10 0 60890 27000.00000 0 18577971.348 -17375663.560 1609683.708 10 0 60890 27900.00000 0 18473936.638 -17483473.787 -1607488.021 10 0 60890 28800.00000 0 18094468.254 -17293746.083 -4793346.598 10 0 60890 29700.00000 0 17486375.061 -16776177.139 -7885823.395 10 0 60890 30600.00000 0 16703188.631 -15912066.999 -10824657.926 10 0 60890 31500.00000 0 15802756.874 -14695329.187 -13552584.664 10 0 60890 32400.00000 0 14844671.258 -13132978.607 -16016460.310 10 0 60890 33300.00000 0 13887637.799 -11245075.292 -18168308.360 10 0 60890 34200.00000 0 12986904.220 -9064125.447 -19966259.715 10 0 60890 35100.00000 0 12191853.029 -6633964.423 -21375370.545 10 0 60890 36000.00000 0 11543862.809 -4008168.189 -22368301.363 10 0 60890 36900.00000 0 11074528.229 -1248059.854 -22925844.348 10 0 60890 37800.00000 0 10804313.626 1579605.310 -23037289.224 10 0 60890 38700.00000 0 10741696.289 4405179.684 -22700621.368 10 0 60890 39600.00000 0 10882834.600 7158782.047 -21922549.184 10 0 60890 40500.00000 0 11211773.822 9772964.799 -20718361.171 10 0 60890 41400.00000 0 11701179.593 12185279.214 -19111616.320 10 0 60890 42300.00000 0 12313566.969 14340632.795 -17133674.681 10 0 60890 43200.00000 0 13002972.103 16193341.843 -14823077.892 10 0 60890 44100.00000 0 13716995.200 17708795.295 -12224792.221 10 0 60890 45000.00000 0 14399127.935 18864662.224 -9389329.252 10 0 60890 45900.00000 0 14991266.840 19651594.570 -6371761.602 10 0 60890 46800.00000 0 15436306.523 20073397.787 -3230652.919 10 0 60890 47700.00000 0 15680703.463 20146664.203 -26923.039 10 0 60890 48600.00000 0 15676902.576 19899886.288 3177329.727 10 0 60890 49500.00000 0 15385524.616 19372088.480 6320026.559 10 0 60890 50400.00000 0 14777222.642 18611036.149 9340303.403 10 0 60890 51300.00000 0 13834129.688 17671097.574 12179680.938 10 0 60890 52200.00000 0 12550836.799 16610848.971 14783187.235 10 0 60890 53100.00000 0 10934860.152 15490522.959 17100412.172 10 0 60890 54000.00000 0 9006577.024 14369407.068 19086474.132 10 0 60890 54900.00000 0 6798632.267 13303300.645 20702881.234 10 0 60890 55800.00000 0 4354838.645 12342135.971 21918271.332 10 0 60890 56700.00000 0 1728615.117 11527862.420 22709017.216 10 0 60890 57600.00000 0 -1018974.009 10892681.627 23059685.840 10 0 60890 58500.00000 0 -3821499.623 10457707.198 22963342.850 10 0 60890 59400.00000 0 -6609675.516 10232105.029 22421696.298 10 0 60890 60300.00000 0 -9313991.113 10212750.609 21445076.173 10 0 60890 61200.00000 0 -11867361.566 10384418.341 20052249.129 10 0 60890 62100.00000 0 -14207686.399 10720495.920 18270070.725 10 0 60890 63000.00000 0 -16280211.144 11184194.871 16132980.415 10 0 60890 63900.00000 0 -18039593.899 11730207.452 13682347.595 10 0 60890 64800.00000 0 -19451590.566 12306741.063 10965679.982 10 0 60890 65700.00000 0 -20494287.880 12857845.008 8035708.543 10 0 60890 66600.00000 0 -21158832.004 13325931.479 4949366.043 10 0 60890 67500.00000 0 -21449621.463 13654383.873 1766678.792 10 0 60890 68400.00000 0 -21383955.785 13790141.163 -1450406.670 10 0 60890 69300.00000 0 -20991154.394 13686147.599 -4639238.349 10 0 60890 70200.00000 0 -20311182.972 13303562.290 -7737690.336 10 0 60890 71100.00000 0 -19392845.760 12613633.236 -10685385.803 10 0 60890 72000.00000 0 -18291620.939 11599154.573 -13424886.124 10 0 60890 72900.00000 0 -17067231.653 10255443.633 -15902821.599 10 0 60890 73800.00000 0 -15781056.486 8590794.987 -18070940.571 10 0 60890 74700.00000 0 -14493489.950 6626391.117 -19887055.552 10 0 60890 75600.00000 0 -13261365.423 4395672.605 -21315867.468 10 0 60890 76500.00000 0 -12135549.915 1943193.752 -22329651.827 10 0 60890 77400.00000 0 -11158812.343 -676988.619 -22908793.695 10 0 60890 78300.00000 0 -10364054.909 -3403325.819 -23042161.635 10 0 60890 79200.00000 0 -9772981.378 -6169103.380 -22727314.091 10 0 60890 80100.00000 0 -9395257.247 -8904985.504 -21970535.119 10 0 60890 81000.00000 0 -9228195.749 -11541671.943 -20786699.692 10 0 60890 81900.00000 0 -9256981.308 -14012557.042 -19198972.113 10 0 60890 82800.00000 0 -9455419.423 -16256280.761 -17238344.188 10 0 60890 83700.00000 0 -9787179.793 -18219066.407 -14943022.821 10 0 60890 84600.00000 0 -10207478.939 -19856748.863 -12357679.464 10 0 60890 85500.00000 0 -10665130.243 -21136410.203 -9532576.439 10 0 60891 0.00000 0 -11104874.079 -22037556.062 -6522587.648 10 0 60891 900.00000 0 -11469889.452 -22552785.781 -3386131.224 10 0 60891 1800.00000 0 -11704380.344 -22687928.998 -184039.009 10 0 60891 2700.00000 0 -11756128.480 -22461646.231 3021620.653 10 0 60891 3600.00000 0 -11578904.397 -21904510.400 6168740.142 10 0 60891 4500.00000 0 -11134635.706 -21057609.493 9196368.522 10 0 60891 5400.00000 0 -10395241.387 -19970729.684 12045883.256 10 0 60891 6300.00000 0 -9344055.032 -18700195.435 14662115.694 10 0 60891 7200.00000 0 -7976777.098 -17306457.121 16994409.306 10 0 60891 8100.00000 0 -6301915.682 -15851526.819 18997591.115 10 0 60891 9000.00000 0 -4340696.479 -14396368.922 20632838.492 10 0 60891 9900.00000 0 -2126444.378 -12998353.882 21868425.452 10 0 60891 10800.00000 0 296539.193 -11708880.611 22680334.756 10 0 60891 11700.00000 0 2874558.453 -10571265.990 23052724.538 10 0 60891 12600.00000 0 5546501.270 -9618989.006 22978240.578 10 0 60891 13500.00000 0 8246133.068 -8874362.453 22458168.006 10 0 60891 14400.00000 0 10904613.450 -8347687.590 21502418.894 10 0 60891 15300.00000 0 13453132.855 -8036927.403 20129354.995 10 0 60891 16200.00000 0 15825561.142 -7927912.638 18365447.794 10 0 60891 17100.00000 0 17960998.960 -7995072.720 16244780.964 10 0 60891 18000.00000 0 19806126.095 -8202661.649 13808403.392 10 0 60891 18900.00000 0 21317248.821 -8506428.056 11103543.909 10 0 60891 19800.00000 0 22461960.304 -8855659.552 8182701.816 10 0 60891 20700.00000 0 23220343.790 -9195515.251 5102630.135 10 0 60891 21600.00000 0 23585667.262 -9469547.628 1923231.077 10 0 60891 22500.00000 0 23564539.596 -9622306.243 -1293614.640 10 0 60891 23400.00000 0 23176520.991 -9601911.882 -4485261.094 10 0 60891 24300.00000 0 22453203.794 -9362490.476 -7589528.439 10 0 60891 25200.00000 0 21436802.551 -8866361.838 -10545926.872 10 0 60891 26100.00000 0 20178313.248 -8085888.607 -13296847.951 10 0 60891 27000.00000 0 18735320.197 -7004905.240 -15788698.705 10 0 60891 27900.00000 0 17169544.127 -5619664.932 -17972955.229 10 0 60891 28800.00000 0 15544235.992 -3939263.075 -19807114.292 10 0 60891 29700.00000 0 13921527.326 -1985518.293 -21255523.927 10 0 60891 30600.00000 0 12359849.524 207684.693 -22290076.654 10 0 60891 31500.00000 0 10911531.008 2595563.216 -22890752.087 10 0 60891 32400.00000 0 9620673.279 5124067.083 -23045998.881 10 0 60891 33300.00000 0 8521394.503 7731903.109 -22752949.380 10 0 60891 34200.00000 0 7636513.394 10352869.157 -22017463.676 10 0 60891 35100.00000 0 6976727.209 12918400.341 -20854003.162 10 0 60891 36000.00000 0 6540316.610 15360221.417 -19285336.945 10 0 60891 36900.00000 0 6313387.877 17612995.142 -17342087.632 10 0 60891 37800.00000 0 6270640.339 19616856.866 -15062126.008 10 0 60891 38700.00000 0 6376624.872 21319730.588 -12489826.904 10 0 60891 39600.00000 0 6587438.848 22679330.941 -9675201.158 10 0 60891 40500.00000 0 6852784.782 23664768.911 -6672920.819 10 0 60891 41400.00000 0 7118304.899 24257695.688 -3541256.684 10 0 60891 42300.00000 0 7328092.484 24452938.327 -340948.915 10 0 60891 43200.00000 0 7427273.776 24258602.165 2865967.418 10 0 60891 44100.00000 0 7364551.407 23695637.037 6017359.276 10 0 60891 45000.00000 0 7094602.244 22796886.607 9052192.166 10 0 60891 45900.00000 0 6580228.774 21605661.415 11911703.541 10 0 60891 46800.00000 0 5794173.560 20173895.843 14540531.038 10 0 60891 47700.00000 0 4720520.438 18559966.165 16887774.491 10 0 60891 48600.00000 0 3355623.267 16826260.636 18907972.060 10 0 60891 49500.00000 0 1708522.594 15036602.496 20561972.576 10 0 60891 50400.00000 0 -199168.293 13253632.626 21817688.095 10 0 60891 51300.00000 0 -2333904.723 11536260.077 22650712.883 10 0 60891 52200.00000 0 -4651354.515 9937285.718 23044797.396 10 0 60891 53100.00000 0 -7097998.871 8501297.195 22992168.262 10 0 60891 54000.00000 0 -9613125.908 7262922.220 22493687.923 10 0 60891 54900.00000 0 -12131136.197 6245512.592 21558850.254 10 0 60891 55800.00000 0 -14584066.400 5460313.731 20205611.284 10 0 60891 56700.00000 0 -16904227.771 4906154.599 18460057.061 10 0 60891 57600.00000 0 -19026850.872 4569671.318 16355913.602 10 0 60891 58500.00000 0 -20892626.967 4426055.677 13933906.954 10 0 60891 59400.00000 0 -22450040.170 4440297.573 11240984.359 10 0 60891 60300.00000 0 -23657392.495 4568869.522 8329410.471 10 0 60891 61200.00000 0 -24484436.244 4761782.352 5255755.430 10 0 60891 62100.00000 0 -24913544.247 4964925.034 2079794.134 10 0 60891 63000.00000 0 -24940367.726 5122589.071 -1136661.726 10 0 60891 63900.00000 0 -24573953.127 5180069.468 -4330975.451 10 0 60891 64800.00000 0 -23836312.268 5086230.659 -7440916.307 10 0 60891 65700.00000 0 -22761463.564 4795926.884 -10405884.432 10 0 60891 66600.00000 0 -21393984.799 4272172.582 -13168104.316 10 0 60891 67500.00000 0 -19787138.898 3487968.962 -15673762.237 10 0 60891 68400.00000 0 -18000652.426 2427707.695 -17874064.261 10 0 60891 69300.00000 0 -16098241.339 1088090.867 -19726193.272 10 0 60891 70200.00000 0 -14144989.047 -521472.861 -21194145.831 10 0 60891 71100.00000 0 -12204687.837 -2379013.490 -22249432.419 10 0 60891 72000.00000 0 -10337255.859 -4450680.766 -22871627.642 10 0 60891 72900.00000 0 -8596338.145 -6691932.834 -23048760.212 10 0 60891 73800.00000 0 -7027191.895 -9049182.769 -22777535.880 10 0 60891 74700.00000 0 -5664943.759 -11461834.055 -22063389.869 10 0 60891 75600.00000 0 -4533290.781 -13864619.914 -20920368.730 10 0 60891 76500.00000 0 -3643697.673 -16190148.848 -19370844.810 10 0 60891 77400.00000 0 -2995122.037 -18371550.281 -17445069.721 10 0 60891 78300.00000 0 -2574276.878 -20345110.292 -15180576.158 10 0 60891 79200.00000 0 -2356417.184 -22052788.011 -12621440.257 10 0 60891 80100.00000 0 -2306615.489 -23444508.412 -9817419.252 10 0 60891 81000.00000 0 -2381470.942 -24480136.726 -6822981.494 10 0 60891 81900.00000 0 -2531178.467 -25131053.152 -3696247.816 10 0 60891 82800.00000 0 -2701869.718 -25381263.200 -497864.927 10 0 60891 83700.00000 0 -2838126.433 -25227998.512 2710167.372 10 0 60891 84600.00000 0 -2885559.825 -24681784.156 5865692.586 10 0 60891 85500.00000 0 -2793347.140 -23765970.585 8907594.622 10 0 60892 0.00000 0 -2516618.609 -22515750.718 11776972.625 10 0 60892 900.00000 0 -2018594.175 -20976702.940 14418272.985 10 0 60892 1800.00000 0 -1272380.579 -19202922.745 16780353.528 10 0 60892 2700.00000 0 -262352.675 -17254818.547 18817465.373 10 0 60892 3600.00000 0 1014939.144 -15196664.578 20490130.493 10 0 60892 4500.00000 0 2550374.342 -13094011.415 21765900.503 10 0 60892 5400.00000 0 4322398.229 -11011061.012 22619982.471 10 0 60892 6300.00000 0 6297684.486 -9008114.329 23035720.236 10 0 60892 7200.00000 0 8432298.582 -7139196.701 23004922.089 10 0 60892 8100.00000 0 10673315.764 -5449958.755 22528028.347 10 0 60892 9000.00000 0 12960828.503 -3975939.528 21614115.002 10 0 60892 9900.00000 0 15230261.896 -2741263.688 20280732.436 10 0 60892 10800.00000 0 17414902.461 -1757827.026 18553581.079 10 0 60892 11700.00000 0 19448536.356 -1025004.317 16466028.848 10 0 60892 12600.00000 0 21268087.839 -529892.074 14058478.211 10 0 60892 13500.00000 0 22816148.096 -248076.338 11377593.753 10 0 60892 14400.00000 0 24043288.400 -144893.541 8475404.061 10 0 60892 15300.00000 0 24910059.954 -177131.468 5408294.581 10 0 60892 16200.00000 0 25388595.409 -295098.377 2235910.715 10 0 60892 17100.00000 0 25463743.531 -444972.296 -980007.399 10 0 60892 18000.00000 0 25133687.948 -571330.160 -4176835.077 10 0 60892 18900.00000 0 24410022.883 -619748.336 -7292293.669 10 0 60892 19800.00000 0 23317281.819 -539362.744 -10265676.294 10 0 60892 20700.00000 0 21891938.604 -285278.240 -13039043.382 10 0 60892 21600.00000 0 20180923.068 179276.638 -15558363.353 10 0 60892 22500.00000 0 18239714.024 881142.616 -17774574.983 10 0 60892 23400.00000 0 16130090.595 1835848.303 -19644549.803 10 0 60892 24300.00000 0 13917637.170 3046714.136 -21131935.224 10 0 60892 25200.00000 0 11669107.508 4504480.442 -22207861.780 10 0 60892 26100.00000 0 9449759.163 6187475.886 -22851500.910 10 0 60892 27000.00000 0 7320770.138 8062319.565 -23050462.930 10 0 60892 27900.00000 0 5336845.730 10085127.421 -22801028.210 10 0 60892 28800.00000 0 3544115.004 12203172.280 -22108207.929 10 0 60892 29700.00000 0 1978403.700 14356927.941 -20985634.194 10 0 60892 30600.00000 0 663954.127 16482411.672 -19455282.543 10 0 60892 31500.00000 0 -387356.366 18513727.161 -17547033.068 10 0 60892 32400.00000 0 -1176267.891 20385701.749 -15298079.382 10 0 60892 33300.00000 0 -1715853.284 22036508.069 -12752197.464 10 0 60892 34200.00000 0 -2030710.364 23410160.947 -9958889.047 10 0 60892 35100.00000 0 -2155667.277 24458785.886 -6972416.477 10 0 60892 36000.00000 0 -2134057.212 25144565.095 -3850747.960 10 0 60892 36900.00000 0 -2015636.595 25441280.532 -654433.790 10 0 60892 37800.00000 0 -1854235.551 25335390.422 2554564.683 10 0 60892 38700.00000 0 -1705240.328 24826595.088 5714070.817 10 0 60892 39600.00000 0 -1623014.159 23927869.264 8762890.276 10 0 60892 40500.00000 0 -1658365.289 22664960.125 11641987.717 10 0 60892 41400.00000 0 -1856168.737 21075372.375 14295620.457 10 0 60892 42300.00000 0 -2253241.730 19206882.783 16672407.900 10 0 60892 43200.00000 0 -2876562.088 17115645.855 18726316.958 10 0 60892 44100.00000 0 -3741904.550 14863968.914 20417545.338 10 0 60892 45000.00000 0 -4852952.719 12517848.334 21713286.496 10 0 60892 45900.00000 0 -6200924.711 10144368.237 22588362.254 10 0 60892 46800.00000 0 -7764729.483 7809068.536 23025711.391 10 0 60892 47700.00000 0 -9511648.954 5573390.405 23016724.968 10 0 60892 48600.00000 0 -11398519.462 3492304.135 22561421.779 10 0 60892 49500.00000 0 -13373365.375 1612216.970 21668459.986 10 0 60892 50400.00000 0 -15377418.847 -30752.777 20354983.782 10 0 60892 51300.00000 0 -17347443.407 -1412063.886 18646306.852 10 0 60892 52200.00000 0 -19218266.005 -2519549.134 16575437.299 10 0 60892 53100.00000 0 -20925412.849 -3353687.530 14182451.768 10 0 60892 54000.00000 0 -22407739.307 -3927340.312 11513729.493 10 0 60892 54900.00000 0 -23609943.748 -4264961.533 8621059.929 10 0 60892 55800.00000 0 -24484859.242 -4401316.329 5560640.523 10 0 60892 56700.00000 0 -24995425.819 -4379760.974 2391983.723 10 0 60892 57600.00000 0 -25116259.038 -4250157.748 -823245.401 10 0 60892 58500.00000 0 -24834747.287 -4066513.578 -4022437.668 10 0 60892 59400.00000 0 -24151630.208 -3884443.538 -7143269.918 10 0 60892 60300.00000 0 -23081032.631 -3758568.134 -10124931.534 10 0 60892 61200.00000 0 -21649951.741 -3739956.349 -12909321.975 10 0 60892 62100.00000 0 -19897218.629 -3873724.545 -15442194.647 10 0 60892 63000.00000 0 -17871977.869 -4196894.684 -17674223.550 10 0 60892 63900.00000 0 -15631749.437 -4736604.029 -19561970.968 10 0 60892 64800.00000 0 -13240154.875 -5508743.326 -21068736.768 10 0 60892 65700.00000 0 -10764403.764 -6517081.944 -22165272.583 10 0 60892 66600.00000 0 -8272646.367 -7752917.458 -22830347.130 10 0 60892 67500.00000 0 -5831303.584 -9195264.754 -23051152.190 10 0 60892 68400.00000 0 -3502485.781 -10811576.745 -22823542.050 10 0 60892 69300.00000 0 -1341607.906 -12558966.281 -22152102.670 10 0 60892 70200.00000 0 604700.510 -14385877.715 -21050050.130 10 0 60892 71100.00000 0 2300304.605 -16234137.843 -19538961.255 10 0 60892 72000.00000 0 3720823.142 -18041300.016 -17648342.471 10 0 60892 72900.00000 0 4854386.716 -19743183.219 -15415045.995 10 0 60892 73800.00000 0 5701865.888 -21276499.840 -12882545.227 10 0 60892 74700.00000 0 6276562.054 -22581462.336 -10100083.922 10 0 60892 75600.00000 0 6603376.436 -23604260.036 -7121715.933 10 0 60892 76500.00000 0 6717494.147 -24299302.954 -4005254.381 10 0 60892 77400.00000 0 6662640.505 -24631139.223 -811150.753 10 0 60892 78300.00000 0 6488984.382 -24575966.636 2398674.366 10 0 60892 79200.00000 0 6250777.852 -24122675.630 5562026.407 10 0 60892 80100.00000 0 6003832.196 -23273380.722 8617634.895 10 0 60892 81000.00000 0 5802936.791 -22043418.576 11506331.730 10 0 60892 81900.00000 0 5699329.575 -20460813.015 14172187.510 10 0 60892 82800.00000 0 5738325.346 -18565229.238 16563584.621 10 0 60892 83700.00000 0 5957201.441 -16406460.469 18634207.243 10 0 60892 84600.00000 0 6383429.497 -14042509.357 20343930.064 10 0 60892 85500.00000 0 7033327.668 -11537342.967 21659589.382 10 0 60893 0.00000 0 7911190.141 -8958413.644 22555622.445 10 0 60893 900.00000 0 9008931.822 -6374045.937 23014563.597 10 0 60893 1800.00000 0 10306263.067 -3850800.050 23027386.770 10 0 60893 2700.00000 0 11771390.370 -1450915.292 22593689.195 10 0 60893 3600.00000 0 13362214.476 770058.148 21721710.943 10 0 60893 4500.00000 0 15027978.293 2765343.042 20428189.569 10 0 60893 5400.00000 0 16711297.584 4498648.342 18738051.376 10 0 60893 6300.00000 0 18350491.266 5945440.823 16683943.853 10 0 60893 7200.00000 0 19882115.052 7093722.119 14305616.836 10 0 60893 8100.00000 0 21243593.114 7944278.588 11649163.022 10 0 60893 9000.00000 0 22375837.560 8510393.331 8766131.330 10 0 60893 9900.00000 0 23225745.321 8817032.290 5712529.557 10 0 60893 10800.00000 0 23748466.524 8899538.691 2547735.308 10 0 60893 11700.00000 0 23909347.524 8801891.152 -666663.530 10 0 60893 12600.00000 0 23685465.152 8574599.635 -3868075.585 10 0 60893 13500.00000 0 23066685.837 8272329.198 -6994135.609 10 0 60893 14400.00000 0 22056203.408 7951353.429 -9983931.706 10 0 60893 15300.00000 0 20670531.638 7666946.941 -12779204.813 10 0 60893 16200.00000 0 18938950.929 7470829.058 -15325495.671 10 0 60893 17100.00000 0 16902431.919 7408768.605 -17573215.744 10 0 60893 18000.00000 0 14612081.204 7518452.676 -19478620.167 10 0 60893 18900.00000 0 12127174.638 7827710.793 -21004663.239 10 0 60893 19800.00000 0 9512861.098 8353170.415 -22121719.533 10 0 60893 20700.00000 0 6837633.336 9099401.094 -22808156.748 10 0 60893 21600.00000 0 4170672.035 10058583.573 -23050749.646 10 0 60893 22500.00000 0 1579174.083 11210717.677 -22844927.727 10 0 60893 23400.00000 0 -874223.661 12524359.952 -22194852.714 10 0 60893 24300.00000 0 -3133818.368 13957859.566 -21113325.283 10 0 60893 25200.00000 0 -5152915.172 15461040.129 -19621523.745 10 0 60893 26100.00000 0 -6895516.101 16977256.355 -17748580.619 10 0 60893 27000.00000 0 -8337555.486 18445738.922 -15531006.022 10 0 60893 27900.00000 0 -9467632.509 19804128.997 -13011969.639 10 0 60893 28800.00000 0 -10287212.600 20991096.035 -10240455.695 10 0 60893 29700.00000 0 -10810291.679 21948929.238 -7270307.635 10 0 60893 30600.00000 0 -11062539.574 22625994.232 -4159181.254 10 0 60893 31500.00000 0 -11079960.608 22978952.370 -967426.706 10 0 60893 32400.00000 0 -10907129.316 22974650.063 2243078.938 10 0 60893 33300.00000 0 -10595076.801 22591599.436 5410126.118 10 0 60893 34200.00000 0 -10198917.499 21820988.717 8472371.283 10 0 60893 35100.00000 0 -9775316.715 20667180.331 11370516.716 10 0 60893 36000.00000 0 -9379905.601 19147675.979 14048449.447 10 0 60893 36900.00000 0 -9064752.156 17292549.963 16454317.954 10 0 60893 37800.00000 0 -8875994.273 15143373.922 18541526.686 10 0 60893 38700.00000 0 -8851733.955 12751676.960 20269630.143 10 0 60893 39600.00000 0 -9020280.874 10177004.134 21605110.067 10 0 60893 40500.00000 0 -9398819.004 7484652.616 22522021.549 10 0 60893 41400.00000 0 -9992552.568 4743177.971 23002496.097 10 0 60893 42300.00000 0 -10794367.852 2021772.405 23037092.206 10 0 60893 43200.00000 0 -11785026.192 -612377.848 22624986.538 10 0 60893 44100.00000 0 -12933881.571 -3096647.832 21774001.507 10 0 60893 45000.00000 0 -14200094.493 -5375336.970 20500467.880 10 0 60893 45900.00000 0 -15534293.114 -7401742.651 18828923.825 10 0 60893 46800.00000 0 -16880613.746 -9139858.599 16791654.866 10 0 60893 47700.00000 0 -18179036.579 -10565627.420 14428082.132 10 0 60893 48600.00000 0 -19367919.588 -11667694.990 11784009.389 10 0 60893 49500.00000 0 -20386624.621 -12447634.915 8910742.220 10 0 60893 50400.00000 0 -21178125.021 -12919633.396 5864095.657 10 0 60893 51300.00000 0 -21691484.270 -13109647.625 2703309.119 10 0 60893 52200.00000 0 -21884099.967 -13054073.209 -510110.169 10 0 60893 53100.00000 0 -21723616.888 -12797977.266 -3713592.186 10 0 60893 54000.00000 0 -21189426.642 -12392972.541 -6844733.143 10 0 60893 54900.00000 0 -20273688.870 -11894823.561 -9842523.360 10 0 60893 55800.00000 0 -18981829.282 -11360887.487 -12648548.612 10 0 60893 56700.00000 0 -17332492.235 -10847499.516 -15208140.160 10 0 60893 57600.00000 0 -15356948.915 -10407415.088 -17471449.814 10 0 60893 58500.00000 0 -13097985.500 -10087418.574 -19394428.077 10 0 60893 59400.00000 0 -10608317.848 -9926200.774 -20939685.697 10 0 60893 60300.00000 0 -7948599.317 -9952595.823 -22077221.643 10 0 60893 61200.00000 0 -5185105.386 -10184252.406 -22785003.425 10 0 60893 62100.00000 0 -2387192.196 -10626795.456 -23049388.987 10 0 60893 63000.00000 0 375364.795 -11273513.410 -22865382.634 10 0 60893 63900.00000 0 3035041.083 -12105583.688 -22236720.911 10 0 60893 64800.00000 0 5529131.516 -13092826.195 -21175787.683 10 0 60893 65700.00000 0 7802110.683 -14194952.414 -19703360.970 10 0 60893 66600.00000 0 9807688.173 -15363256.795 -17848197.292 10 0 60893 67500.00000 0 11510474.725 -16542678.713 -15646462.324 10 0 60893 68400.00000 0 12887191.744 -17674147.848 -13141019.484 10 0 60893 69300.00000 0 13927375.849 -18697114.088 -10380590.745 10 0 60893 70200.00000 0 14633551.319 -19552155.550 -7418806.280 10 0 60893 71100.00000 0 15020865.490 -20183555.188 -4313161.603 10 0 60893 72000.00000 0 15116204.489 -20541737.930 -1123902.547 10 0 60893 72900.00000 0 14956828.284 -20585466.300 2087140.296 10 0 60893 73800.00000 0 14588583.858 -20283702.680 5257745.226 10 0 60893 74700.00000 0 14063772.701 -19617060.376 8326498.302 10 0 60893 75600.00000 0 13438762.924 -18578782.864 11233974.630 10 0 60893 76500.00000 0 12771446.657 -17175210.184 13923879.830 10 0 60893 77400.00000 0 12118649.498 -15425712.743 16344130.290 10 0 60893 78300.00000 0 11533600.548 -13362094.723 18447852.198 10 0 60893 79200.00000 0 11063568.761 -11027491.054 20194280.959 10 0 60893 80100.00000 0 10747764.349 -8474802.704 21549544.481 10 0 60893 81000.00000 0 10615592.903 -5764733.837 22487315.986 10 0 60893 81900.00000 0 10685335.304 -2963510.652 22989324.313 10 0 60893 82800.00000 0 10963308.988 -140374.783 23045712.085 10 0 60893 83700.00000 0 11443546.326 2635046.544 22655234.764 10 0 60893 84600.00000 0 12108004.580 5295386.245 21825296.236 10 0 60893 85500.00000 0 12927299.946 7778090.558 20571819.379 99